This is the latest recevied weather packets stored in our database for station/object WB7AAV. If no packets are shown the sender has not sent any weather packets the latest 10 day(s).
| Time | Temp. | Humidity | Pressure | Rain* | Wind** | Luminosity | Snow |
|---|---|---|---|---|---|---|---|
| 1777072198 | 20.56° C | 5% | 1004.8 hPa | 0 mm | - | - | - |
| 1777070999 | 21.11° C | 5% | 1004.4 hPa | 0 mm | - | - | - |
| 1777070397 | 21.11° C | 5% | 1004.4 hPa | 0 mm | - | - | - |
| 1777066796 | 20.56° C | 7% | 1005.1 hPa | 0 mm | - | - | - |
| 1777066496 | 20.56° C | 6% | 1005.3 hPa | 0 mm | - | - | - |
| 1777066197 | 20.56° C | 6% | 1005.3 hPa | 0 mm | - | - | - |
| 1777065298 | 21.67° C | 7% | 1005.5 hPa | 0 mm | - | - | - |
| 1777062896 | 20° C | 6% | 1005.6 hPa | 0 mm | - | - | - |
| 1777062296 | 19.44° C | 5% | 1005.9 hPa | 0 mm | - | - | - |
| 1777060494 | 18.89° C | 5% | 1006.3 hPa | 0 mm | - | - | - |
| 1777060193 | 18.33° C | 5% | 1006.5 hPa | 0 mm | - | - | - |
| 1777059594 | 19.44° C | 7% | 1006.3 hPa | 0 mm | - | - | - |
| 1777058687 | 19.44° C | 7% | 1006.6 hPa | 0 mm | - | - | - |
| 1777058472 | 18.89° C | 8% | 1006.6 hPa | 0 mm | - | - | - |
| 1777056584 | 19.44° C | 9% | 1007.2 hPa | 0 mm | - | - | - |
| 1777055983 | 18.89° C | 10% | 1007.4 hPa | 0 mm | - | - | - |
| 1777053582 | 17.78° C | 10% | 1008.5 hPa | 0 mm | - | - | - |
| 1777052080 | 17.22° C | 12% | 1009.1 hPa | 0 mm | - | - | - |
| 1777049980 | 16.11° C | 13% | 1009.7 hPa | 0 mm | - | - | - |
| 1777049078 | 15.56° C | 16% | 1010 hPa | 0 mm | - | - | - |
| 1777048479 | 15.56° C | 15% | 1010.2 hPa | 0 mm | - | - | - |
| 1777047579 | 14.44° C | 16% | 1010.3 hPa | 0 mm | - | - | - |
| 1777045778 | 14.44° C | 16% | 1010.8 hPa | 0 mm | - | - | - |
| 1777043760 | 13.33° C | 18% | 1011.3 hPa | 0 mm | - | - | - |
| 1777043076 | 12.78° C | 19% | 1011.3 hPa | 0 mm | - | - | - |
* Rain latest hour (hover to see other rain measurements)
** Current wind speed in m/s (hover to see current wind gust speed)